Location: Unspecified
(0.0000°N, 0.0000°E)
Time: 18:30:22
(UTC+00:00)

SR - All Passes

Search period start: 22 February 2024 00:00
Search period end: 03 March 2024 00:00
Orbit: 573 x 868 km, 66.7° (Epoch: 21 February)

Date Brightness Start Highest point End Pass type
(mag) Time Alt. Az. Time Alt. Az. Time Alt. Az.
22 Feb - 01:44:21 10° NNE 01:47:40 21° ENE 01:50:52 10° ESE night (unlit)
22 Feb - 03:26:48 10° WNW 03:29:13 15° WSW 03:31:36 10° SW night (unlit)
22 Feb - 14:06:28 10° S 14:12:01 64° ESE 14:17:47 10° NNE daylight
23 Feb - 02:33:19 10° NW 02:37:31 47° WSW 02:41:34 10° S night (unlit)
23 Feb - 13:15:45 10° SSE 13:20:17 25° ESE 13:24:56 10° NE daylight
23 Feb - 14:57:23 10° SW 15:01:59 25° WNW 15:06:42 10° NNW daylight
24 Feb - 01:41:33 10° N 01:45:48 48° ENE 01:49:52 10° SE night (unlit)
24 Feb - 14:04:35 10° SSW 14:10:10 65° WNW 14:15:57 10° N daylight
25 Feb - 00:51:24 10° NNE 00:53:59 15° ENE 00:56:30 10° ESE night (unlit)
25 Feb - 02:32:26 10° WNW 02:35:35 20° WSW 02:38:40 10° SSW night (unlit)
25 Feb - 13:12:58 10° S 13:18:24 50° ESE 13:24:01 10° NE daylight
25 Feb - 14:57:50 10° W 15:00:12 13° WNW 15:02:35 10° NW daylight
26 Feb - 01:39:32 10° NNW 01:43:53 66° WSW 01:48:03 10° SSE night (unlit)
26 Feb - 12:22:40 10° SSE 12:26:39 20° ESE 12:30:44 10° ENE daylight
26 Feb - 14:03:19 10° SW 14:08:20 32° WNW 14:13:29 10° N daylight
27 Feb - 00:48:07 10° N 00:52:07 35° ENE 00:55:59 10° SE night (unlit)
27 Feb - 13:10:52 10° SSW 13:16:32 82° WNW 13:22:22 10° NNE daylight
27 Feb - 23:59:01 10° NE 00:00:17 11° ENE 00:01:34 10° E night (unlit)
28 Feb - 01:38:17 10° NW 01:41:55 26° WSW 01:45:29 10° SSW night (unlit)
28 Feb - 12:19:33 10° S 12:24:46 39° ESE 12:30:09 10° NE daylight
28 Feb - 14:03:02 10° WSW 14:06:31 16° WNW 14:10:03 10° NNW daylight
29 Feb - 00:45:51 10° NNW 00:50:12 89° ENE 00:54:24 10° SSE night (unlit)
29 Feb - 11:29:48 10° SE 11:33:01 15° ESE 11:36:17 10° ENE daylight
29 Feb - 13:09:21 10° SW 13:14:41 41° WNW 13:20:08 10° N daylight
29 Feb - 23:54:48 10° NNE 23:58:26 26° ENE 00:01:57 10° SE night (unlit)
01 Mar - 01:38:41 10° W 01:39:59 11° WSW 01:41:15 10° SW night (unlit)
01 Mar - 12:17:13 10° SSW 12:22:53 79° ESE 12:28:44 10° NNE daylight
02 Mar - 00:44:17 10° NW 00:48:14 36° WSW 00:52:06 10° S night (unlit)
02 Mar - 11:26:12 10° S 11:31:07 31° ESE 11:36:11 10° NE daylight
02 Mar - 13:08:37 10° WSW 13:12:50 21° WNW 13:17:08 10° NNW daylight
